CAPE
2 0 1 6 0 0 3 8 1 4 0 0 0 0 0 0 0 0 0 0 0 0 0 0 0 0 0 0 0 0 0 0 0 0 0 0 0 0 0 0 0 0 0 0 0 0 0 0 0 0 0 1 0 0
12 2 7 13 0 0 3 0 1 0 0 0 0 0 0 0 0 0 0 0 0 0 0 0 0 0 0 0 0 0 0 0 0 0 0 0 0 0 0 0 0 0 0 0 0 0 1 1 1 0 0 0 0 0
4 3 14 4 0 0 9 0 1 0 0 0 0 0 0 0 0 0 0 0 0 0 0 0 0 0 0 0 0 0 0 0 0 0 0 0 0 0 0 0 0 0 0 0 0 0 0 0 0 0 1 0 0 0
2 13 14 1 2 16 4 0 0 0 0 0 0 0 0 0 0 0 0 0 0 0 0 0 0 0 0 0 0 0 0 0 0 0 0 0 0 0 0 0 0 0 0 1 0 0 0 0 0 0 0 0 0 0
1 1 11 1 5 0 6 0 0 0 0 0 0 0 0 0 0 0 0 0 0 0 0 0 0 0 0 0 0 0 0 0 0 0 0 0 0 0 0 0 0 0 0 0 0 1 0 0 0 0 1 1 0 0
3 3 9 7 1 1 0 5 0 0 0 1 0 0 0 0 0 0 0 0 0 0 0 0 0 0 0 0 0 0 0 0 0 0 0 0 0 0 0 0 1 0 0 0 0 0 0 1 0 1 0 1 1 0
21 16 1 0 0 0 0 7 7 0 0 0 0 0 0 0 0 0 0 0 0 0 0 0 0 0 0 0 0 0 0 0 0 0 0 0 0 0 0 0 2 2 0 0 0 0 0 0 0 1 0 1 0 0
5 6 3 0 0 2 1 9 9 0 0 0 0 0 0 0 0 0 0 0 0 0 0 0 0 0 0 0 0 0 0 0 0 0 0 0 0 0 0 0 1 0 0 0 0 0 0 1 0 0 0 0 0 0
11 1 0 0 0 0 0 7 3 0 0 0 0 0 0 0 0 0 0 0 0 0 0 0 0 0 0 0 0 0 0 0 0 0 0 0 0 0 0 0 0 0 0 1 0 0 0 0 0 0 0 0 0 0
10 1 0 0 0 0 0 3 4 1 0 0 0 0 0 0 1 0 0 0 0 0 0 0 0 0 0 0 0 0 0 0 0 0 0 0 0 0 0 0 0 0 0 0 0 1 2 0 0 0 0 0 0 0
9 0 0 0 0 1 2 1 0 0 0 0 0 0 0 0 0 0 0 0 0 0 0 0 0 0 0 0 0 0 0 0 0 0 0 0 0 1 0 0 0 0 0 0 0 0 0 0 0 0 0 0 0 0
2 0 0 0 0 1 2 0 0 0 0 0 0 0 0 0 0 0 0 0 0 0 0 0 0 0 0 0 0 0 0 0 0 0 0 0 0 0 0 0 0 0 0 0 0 0 0 0 0 0 0 0 0 0
2 0 0 0 0 3 0 0 0 0 0 0 0 0 0 0 0 0 0 0 0 0 0 0 0 0 0 0 0 0 0 0 0 0 0 0 3 0 0 0 0 0 0 0 0 0 0 0 0 0 0 0 0 0
0 0 0 0 0 0 0 0 0 0 0 0 0 0 0 0 0 0 0 0 0 0 0 0 0 0 0 0 0 0 0 0 0 0 0 0 2 0 0 0 0 0 0 0 0 0 0 0 0 0 0 0 0 0
0 0 0 0 0 2 1 0 0 0 0 0 0 0 0 0 0 0 0 0 0 0 0 0 0 0 0 0 0 0 0 0 0 0 0 0 0 0 0 0 0 0 0 0 0 0 0 0 0 0 0 0 0 0
8 5 1 5 2 0 0 0 0 0 0 0 0 0 0 0 1 0 0 0 0 0 0 0 0 0 0 0 0 0 0 0 0 0 0 0 0 0 0 0 0 0 0 0 0 0 0 0 0 0 0 0 0 0
0 1 11 4 0 0 0 0 0 0 0 0 0 0 0 0 0 0 0 0 0 0 0 0 0 0 0 0 0 0 0 0 0 0 0 0 0 0 0 0 0 0 0 0 0 0 0 0 0 0 0 0 0 0
0 10 2 0 0 0 0 0 0 0 0 0 0 0 0 0 2 0 0 0 0 2 1 0 0 0 0 0 0 0 0 0 0 0 0 0 0 0 0 0 0 0 0 0 0 0 0 0 0 0 0 0 0 0
3 4 0 0 0 0 0 0 0 0 0 0 0 0 0 0 0 0 0 0 0 0 0 0 0 0 0 0 0 0 0 0 0 0 0 0 0 0 0 0 0 0 0 0 0 0 0 0 0 0 0 0 0 0
6 2 0 0 0 0 0 0 0 0 0 0 0 0 0 0 0 0 0 0 0 0 0 0 0 0 0 0 0 0 0 0 0 0 0 0 0 0 0 0 0 0 0 0 0 0 0 0 0 0 0 0 0 0
0 0 0 0 0 0 0 0 0 0 0 0 0 0 0 0 0 0 0 0 0 0 0 0 0 0 0 0 0 0 0 0 0 0 0 0 0 0 0 0 0 0 0 0 0 0 0 0 0 0 0 0 0 0
0 0 0 0 0 0 0 0 0 0 0 0 0 0 0 0 0 0 0 0 0 0 0 0 0 0 0 0 0 0 0 0 0 0 0 0 0 0 0 0 0 0 0 0 0 0 0 0 0 0 0 0 0 0
0 0 0 0 0 0 0 0 0 0 0 0 0 0 0 0 0 0 0 0 0 0 0 0 0 0 0 0 0 0 0 0 0 0 0 0 0 0 0 0 0 0 0 0 0 0 0 0 0 0 0 0 0 0
0 0 0 0 0 0 0 0 0 1 0 0 0 0 0 0 0 0 0 0 0 0 0 0 0 0 0 0 0 0 0 0 0 0 0 0 0 0 0 0 0 0 0 0 0 0 0 0 0 0 0 0 0 0
0 0 0 0 0 0 0 0 0 0 0 0 0 0 0 0 0 0 0 0 0 0 0 0 0 0 0 0 0 0 0 0 0 0 0 0 0 0 0 0 0 0 0 0 0 0 0 0 0 0 0 0 0 0
0 0 0 0 0 0 0 0 0 0 0 0 0 0 0 0 0 0 0 0 0 1 0 0 0 0 0 0 0 0 0 0 0 0 0 0 0 0 0 0 0 0 0 0 0 0 0 0 0 0 0 0 0 0
0 0 0 0 0 0 0 0 0 0 0 0 0 0 0 0 0 0 0 0 0 0 0 0 0 0 0 0 0 0 0 0 0 0 0 0 0 0 0 0 0 0 0 0 0 0 0 0 0 0 0 0 0 0
0 0 0 0 0 0 0 0 0 0 0 0 0 0 0 0 0 0 0 0 1 1 0 0 0 0 0 0 0 0 0 0 0 0 0 0 0 0 0 0 0 0 0 0 0 0 0 0 0 0 0 0 0 0
0 0 0 0 0 0 0 0 0 0 0 0 0 0 0 0 0 0 0 0 0 0 0 0 0 0 0 0 0 0 0 0 0 0 0 0 0 0 0 0 0 0 0 0 0 0 0 0 0 0 0 0 0 0
0 0 0 0 0 0 0 0 0 0 0 0 0 0 0 0 0 0 0 0 0 0 0 0 0 0 0 0 0 0 0 0 0 0 0 0 0 0 0 0 0 0 0 0 0 0 0 0 0 0 0 0 0 0
0 0 0 0 0 0 0 0 0 0 0 0 0 0 0 0 0 0 0 0 0 0 0 0 0 0 0 0 0 0 0 0 0 0 0 0 0 0 0 0 0 0 0 0 0 0 0 0 0 0 0 0 0 0
0 0 0 0 0 0 0 0 0 0 0 0 0 0 0 0 0 0 0 0 0 0 0 0 0 0 0 0 0 0 0 0 0 0 0 0 0 0 0 0 0 0 0 0 0 0 0 0 0 0 0 0 0 0
0 0 0 0 0 0 0 0 0 0 0 0 0 0 0 0 0 0 0 0 0 0 0 0 0 0 0 0 0 0 0 0 0 0 0 0 0 0 0 0 0 0 0 0 0 0 0 0 0 0 0 0 0 0
CIN
-1 -1 -1 -0 -0 -0 -2 -3 -6 -8 -0 -0 -0 -0 -0 -0 -0 -0 -0 -0 -0 -0 -0 -0 -0 -0 -0 -0 -0 -0 -0 -0 -0 -0 -0 -0 -0 -0 -0 -0 -0 -0 -0 -0 -0 -0 -0 -0 -0 -0 -0 -0 -0 -0
-0 -0 -0 -0 -0 -0 -4 -0 -0 -0 -0 -0 -0 -0 -0 -0 -0 -0 -0 -0 -0 -0 -0 -0 -0 -0 -0 -0 -0 -0 -0 -0 -0 -0 -0 -0 -0 -0 -0 -0 -0 -0 -0 -0 -0 -0 -0 -0 -0 -0 -0 -0 -0 -0
-1 -1 -0 -3 -0 -0 -2 -0 -0 -0 -0 -0 -0 -0 -0 -0 -0 -0 -0 -0 -0 -0 -0 -0 -0 -0 -0 -0 -0 -0 -0 -0 -0 -0 -0 -0 -0 -0 -0 -0 -0 -0 -0 -0 -0 -0 -0 -0 -0 -0 -0 -0 -0 -0
-0 -0 -0 -2 -2 -1 -2 -0 -0 -0 -0 -0 -0 -0 -0 -0 -0 -0 -0 -0 -0 -0 -0 -0 -0 -0 -0 -0 -0 -0 -0 -0 -0 -0 -0 -0 -0 -0 -0 -0 -0 -0 -0 -0 -0 -0 -0 -0 -0 -0 -0 -0 -0 -0
-0 -0 -3 -3 -5 -2 -0 -0 -0 -0 -0 -0 -0 -0 -0 -0 -0 -0 -0 -0 -0 -0 -0 -0 -0 -0 -0 -0 -0 -0 -0 -0 -0 -0 -0 -0 -0 -0 -0 -0 -0 -0 -0 -0 -0 -0 -0 -0 -0 -0 -0 -0 -0 -0
-0 -0 -4 -1 -1 -0 -0 -1 -0 -0 -0 -2 -0 -0 -0 -0 -0 -0 -0 -0 -0 -0 -0 -0 -0 -0 -0 -0 -0 -0 -0 -0 -0 -0 -0 -0 -0 -0 -0 -0 -0 -0 -1 -0 -0 -0 -0 -0 -0 -0 -0 -0 -0 -0
-0 -0 -9 -0 -2 -0 -0 -5 -5 -0 -0 -0 -0 -0 -0 -0 -0 -0 -0 -0 -0 -0 -0 -0 -0 -0 -0 -0 -0 -0 -0 -0 -0 -0 -0 -0 -0 -0 -0 -0 -0 -1 -0 -0 -0 -0 -0 -0 -0 -0 -0 -0 -0 -0
-0 -0 -1 -0 -0 -0 -6 -3 -1 -1 -0 -0 -0 -0 -0 -0 -0 -0 -0 -0 -0 -0 -0 -0 -0 -0 -0 -0 -0 -0 -0 -0 -0 -0 -0 -0 -0 -0 -0 -0 -0 -2 -0 -0 -0 -0 -0 -0 -0 -0 -0 -0 -0 -0
-1 -3 -0 -0 -0 -0 -0 -0 -0 -0 -0 -0 -0 -0 -0 -0 -0 -0 -0 -0 -0 -0 -0 -0 -0 -0 -0 -0 -0 -0 -0 -0 -0 -0 -0 -0 -0 -0 -0 -0 -0 -0 -0 -0 -0 -0 -0 -0 -0 -0 -0 -0 -0 -0
-1 -1 -0 -0 -0 -0 -0 -0 -1 -3 -0 -0 -0 -0 -0 -0 -1 -0 -0 -0 -0 -0 -0 -0 -0 -0 -0 -0 -0 -0 -0 -0 -0 -0 -0 -0 -0 -0 -0 -0 -0 -0 -0 -0 -0 -0 -0 -0 -0 -0 -0 -0 -0 -0
-0 -0 -0 -0 -0 -2 -6 -0 -0 -0 -0 -0 -0 -0 -0 -0 -0 -0 -0 -0 -0 -0 -0 -0 -0 -0 -0 -0 -0 -0 -0 -0 -0 -0 -0 -0 -0 -0 -0 -0 -0 -0 -0 -0 -0 -0 -0 -0 -0 -0 -0 -0 -0 -0
-2 -0 -0 -0 -0 -7 -18 -0 -0 -0 -0 -0 -0 -0 -0 -0 -0 -0 -0 -0 -0 -0 -0 -0 -0 -0 -0 -0 -0 -0 -0 -0 -0 -0 -0 -0 -0 -0 -0 -0 -0 -0 -0 -0 -0 -0 -0 -0 -0 -0 -0 -0 -0 -0
-0 -0 -0 -0 -1 -11 -0 -0 -0 -0 -0 -0 -0 -0 -0 -0 -0 -0 -0 -0 -0 -0 -0 -0 -0 -0 -0 -0 -0 -0 -0 -0 -0 -0 -0 -0 -0 -0 -0 -0 -0 -0 -0 -0 -0 -0 -0 -0 -0 -0 -0 -0 -0 -0
-0 -0 -0 -0 -3 -0 -0 -34 -0 -0 -0 -0 -0 -0 -0 -0 -0 -0 -0 -0 -0 -0 -0 -0 -0 -0 -0 -0 -0 -0 -0 -0 -0 -0 -0 -0 -0 -0 -0 -0 -0 -0 -0 -0 -0 -0 -0 -0 -0 -0 -0 -0 -0 -0
-0 -0 -0 -0 -1 -13 -20 -0 -0 -0 -0 -0 -0 -0 -0 -0 -0 -0 -0 -0 -0 -0 -0 -0 -0 -0 -0 -0 -0 -0 -0 -0 -0 -0 -0 -0 -0 -0 -0 -0 -0 -0 -0 -0 -0 -0 -0 -0 -0 -0 -0 -0 -0 -0
-0 -0 -0 -1 -5 -0 -0 -0 -0 -0 -0 -0 -0 -0 -0 -0 -8 -5 -0 -0 -0 -0 -0 -0 -0 -0 -0 -0 -0 -0 -0 -0 -0 -0 -0 -0 -0 -0 -0 -0 -0 -0 -0 -0 -0 -0 -0 -0 -0 -0 -0 -0 -0 -0
-0 -1 -1 -5 -0 -0 -0 -0 -0 -0 -0 -0 -0 -0 -0 -0 -0 -0 -0 -0 -0 -0 -0 -0 -0 -0 -0 -0 -0 -0 -0 -0 -0 -0 -0 -0 -0 -0 -0 -0 -0 -0 -0 -0 -0 -0 -0 -0 -0 -0 -0 -0 -0 -0
-0 -0 -0 -0 -0 -0 -0 -0 -0 -0 -0 -0 -2 -0 -0 -0 -9 -2 -0 -14 -0 -8 -3 -3 -0 -0 -0 -0 -0 -0 -0 -0 -0 -0 -0 -0 -0 -0 -0 -0 -0 -0 -0 -0 -0 -0 -0 -0 -0 -0 -0 -0 -0 -0
-0 -0 -0 -0 -0 -0 -0 -0 -0 -0 -0 -0 -0 -0 -0 -0 -0 -0 -0 -0 -4 -0 -12 -0 -0 -0 -0 -0 -0 -0 -0 -0 -0 -0 -0 -0 -0 -0 -0 -0 -0 -0 -0 -0 -0 -0 -0 -0 -0 -0 -0 -0 -0 -0
-0 -0 -0 -0 -0 -0 -0 -0 -0 -0 -0 -0 -0 -0 -0 -0 -0 -0 -0 -0 -8 -0 -0 -0 -0 -0 -0 -0 -0 -0 -0 -0 -0 -0 -0 -0 -0 -0 -0 -0 -0 -0 -0 -0 -0 -0 -0 -0 -0 -0 -0 -0 -0 -0
-0 -0 -0 -0 -0 -0 -0 -0 -0 -0 -0 -0 -0 -0 -0 -0 -0 -0 -0 -0 -3 -0 -0 -0 -0 -0 -0 -0 -0 -0 -0 -0 -0 -0 -0 -0 -0 -0 -0 -0 -0 -0 -0 -0 -0 -0 -0 -0 -0 -0 -0 -0 -0 -0
-0 -0 -0 -0 -0 -0 -0 -0 -0 -0 -0 -0 -0 -0 -0 -0 -0 -0 -0 -0 -0 -0 -0 -0 -0 -0 -0 -0 -0 -0 -0 -0 -0 -0 -0 -0 -0 -0 -0 -0 -0 -0 -0 -0 -0 -0 -0 -0 -0 -0 -0 -0 -0 -0
-0 -0 -0 -0 -0 -0 -0 -0 -0 -0 -0 -0 -0 -0 -0 -0 -0 -0 -0 -0 -0 -0 -0 -0 -0 -0 -0 -0 -0 -0 -0 -0 -0 -0 -0 -0 -0 -0 -0 -0 -0 -0 -0 -0 -0 -0 -0 -0 -0 -0 -0 -0 -0 -0
-0 -0 -0 -0 -0 -0 -0 -0 -0 -0 -0 -0 -0 -0 -0 -0 -0 -0 -0 -0 -0 -0 -0 -0 -0 -0 -0 -0 -0 -0 -0 -0 -0 -0 -0 -0 -0 -0 -0 -0 -0 -0 -0 -0 -0 -0 -0 -0 -0 -0 -0 -0 -0 -0
-0 -0 -0 -0 -0 -0 -0 -0 -2 -0 -0 -0 -0 -0 -0 -0 -0 -0 -0 -0 -0 -0 -0 -0 -0 -0 -0 -0 -0 -0 -0 -0 -0 -0 -0 -0 -0 -0 -0 -0 -0 -0 -0 -0 -0 -0 -0 -0 -0 -0 -0 -0 -0 -0
-0 -0 -0 -0 -0 -0 -0 -0 -0 -0 -0 -0 -0 -0 -0 -0 -0 -0 -0 -0 -0 -0 -0 -0 -0 -0 -0 -0 -0 -0 -0 -0 -0 -0 -0 -0 -0 -0 -0 -0 -0 -0 -0 -0 -0 -0 -0 -0 -0 -0 -0 -0 -0 -0
-0 -0 -0 -0 -0 -0 -0 -0 -0 -0 -0 -0 -0 -0 -0 -0 -0 -0 -0 -0 -0 -0 -0 -0 -0 -0 -0 -0 -0 -0 -0 -0 -0 -0 -0 -0 -0 -0 -0 -0 -0 -0 -0 -0 -0 -0 -0 -0 -0 -0 -0 -0 -0 -0
-0 -0 -0 -0 -0 -0 -0 -0 -0 -0 -0 -0 -0 -0 -0 -0 -0 -0 -0 -0 -0 -0 -0 -0 -0 -0 -0 -0 -0 -0 -0 -0 -0 -0 -0 -0 -0 -0 -0 -0 -0 -0 -0 -0 -0 -0 -0 -0 -0 -0 -0 -0 -0 -0
-0 -0 -0 -0 -0 -0 -0 -0 -0 -0 -0 -0 -0 -0 -0 -0 -0 -0 -0 -0 -0 -0 -0 -0 -0 -0 -0 -0 -0 -0 -0 -0 -0 -0 -0 -0 -0 -0 -0 -0 -0 -0 -0 -0 -0 -0 -0 -0 -0 -0 -0 -0 -0 -0
-0 -0 -0 -0 -0 -0 -0 -0 -0 -0 -0 -0 -0 -0 -0 -0 -0 -0 -0 -0 -0 -0 -0 -0 -0 -0 -0 -0 -0 -0 -0 -0 -0 -0 -0 -0 -0 -0 -0 -0 -0 -0 -0 -0 -0 -0 -0 -0 -0 -0 -0 -0 -0 -0
-0 -0 -0 -0 -0 -0 -0 -0 -0 -0 -0 -0 -0 -0 -0 -0 -0 -0 -0 -0 -0 -0 -0 -0 -0 -0 -0 -0 -0 -0 -0 -0 -0 -0 -0 -0 -0 -0 -0 -0 -0 -0 -0 -0 -0 -0 -0 -0 -0 -0 -0 -0 -0 -0
-0 -0 -0 -0 -0 -0 -0 -0 -0 -0 -0 -0 -0 -0 -0 -0 -0 -0 -0 -0 -0 -0 -0 -0 -0 -0 -0 -0 -0 -0 -0 -0 -0 -0 -0 -0 -0 -0 -0 -0 -0 -0 -0 -0 -0 -0 -0 -0 -0 -0 -0 -0 -0 -0
-0 -0 -0 -0 -0 -0 -0 -0 -0 -0 -0 -0 -0 -0 -0 -0 -0 -0 -0 -0 -0 -0 -0 -0 -0 -0 -0 -0 -0 -0 -0 -0 -0 -0 -0 -0 -0 -0 -0 -0 -0 -0 -0 -0 -0 -0 -0 -0 -0 -0 -0 -0 -0 -0
Wind_Speed
26 26 24 28 10 9 10 6 4 6 10 11 11 11 11 11 14 18 15 16 14 10 11 12 12 12 11 12 12 13 11 14 11 11 11 12 12 13 14 15 15 13 14 15 15 16 19 20 16 14 16 14 12 9
25 29 30 14 15 12 8 5 4 6 8 10 11 11 13 16 17 17 16 13 13 7 8 7 6 9 12 12 8 12 12 11 11 11 12 12 12 13 13 16 15 14 13 13 14 15 12 15 13 12 13 12 9 7
27 28 20 17 14 9 8 5 5 7 7 9 8 16 15 13 15 16 14 13 9 5 5 8 8 8 8 9 10 9 11 11 11 12 11 12 13 12 14 15 13 13 14 14 14 16 13 13 13 11 10 10 7 4
24 23 22 17 17 9 8 5 5 5 6 8 14 10 9 10 12 13 12 15 11 9 9 10 11 8 10 9 10 9 10 11 12 13 13 12 12 12 13 13 13 11 13 12 13 13 11 12 11 8 11 9 10 11
22 25 18 15 11 11 7 5 5 4 9 13 9 7 3 4 4 3 5 8 12 12 11 10 8 9 8 10 11 12 12 13 14 14 15 13 12 11 12 11 12 13 14 16 12 14 11 10 10 11 12 9 8 9
31 29 16 12 12 15 10 5 6 10 11 8 7 8 10 11 12 11 10 10 10 10 8 11 12 11 10 10 12 13 15 16 15 15 14 13 12 11 10 9 10 12 13 13 13 10 12 10 10 10 11 11 8 9
20 17 14 11 11 15 8 7 5 10 9 5 6 7 7 5 5 9 11 15 13 10 9 7 9 13 12 12 14 15 16 16 16 15 14 13 12 11 10 8 5 11 9 8 7 8 7 11 9 8 6 7 11 9
15 15 13 12 12 10 8 8 6 11 10 3 4 3 1 1 4 7 9 9 9 8 10 9 11 10 13 12 13 16 16 16 17 15 14 13 11 12 12 11 6 11 10 8 7 13 8 11 8 7 8 10 11 12
14 13 12 12 10 8 7 8 8 10 8 6 6 8 10 11 12 12 13 10 9 11 11 12 7 9 11 12 14 15 16 18 18 17 15 13 13 14 16 7 6 12 14 9 7 6 6 7 7 9 11 11 12 13
15 13 10 12 10 8 9 8 7 7 6 11 14 14 13 14 14 13 13 14 14 15 13 11 11 10 9 11 13 15 16 17 19 17 14 13 16 15 16 8 10 14 12 8 7 7 6 7 8 10 12 12 13 14
14 12 11 12 9 9 9 8 6 8 11 15 15 14 14 14 13 13 12 12 14 12 13 11 10 9 11 11 13 13 15 16 18 15 12 13 16 18 14 11 13 15 15 15 14 10 8 7 7 9 11 11 12 14
14 12 11 10 10 10 8 9 12 13 14 14 9 11 13 13 13 12 12 12 13 11 11 8 8 11 12 13 13 13 15 15 15 15 6 16 19 21 19 18 15 14 15 13 11 7 7 8 9 9 9 10 12 13
15 14 12 11 10 9 9 11 7 5 11 11 12 13 13 14 12 12 11 11 10 9 8 8 9 12 12 12 13 13 15 14 15 17 17 17 21 22 18 14 12 10 8 7 6 6 5 6 8 8 8 9 11 12
16 14 11 10 8 8 6 4 9 12 12 11 12 11 13 13 13 12 10 8 10 8 9 10 11 12 12 11 13 13 15 15 15 16 17 17 23 26 23 15 10 8 6 9 14 4 5 5 6 7 8 10 13 14
13 10 8 8 8 7 6 9 10 11 11 11 12 12 12 12 11 9 9 7 8 9 10 11 13 13 12 12 13 16 16 17 18 17 16 18 22 21 20 18 18 17 21 25 25 21 12 9 10 12 11 12 14 15
12 8 9 8 7 6 8 10 11 11 11 11 11 9 10 8 6 7 7 8 10 10 11 12 12 12 12 8 16 18 17 17 16 16 15 7 17 18 16 22 15 12 14 14 14 14 14 14 13 13 13 13 14 15
10 13 9 7 5 6 9 11 12 11 11 12 11 10 9 8 9 9 9 10 12 10 10 11 11 11 10 16 18 18 17 15 14 14 11 14 14 3 5 4 7 9 12 13 14 16 16 14 14 13 13 14 14 15
13 9 8 7 7 8 11 11 12 12 10 11 11 10 9 9 9 10 11 12 10 10 10 9 9 8 16 17 17 16 15 14 13 12 12 12 10 6 6 12 12 12 14 16 17 15 14 14 12 12 13 14 15 16
10 9 8 9 11 10 12 13 13 12 12 11 10 10 10 11 12 12 13 11 11 9 8 11 13 17 18 18 16 15 15 16 15 14 14 14 7 8 7 8 10 12 14 14 14 13 12 12 12 12 13 13 16 18
10 8 10 10 12 12 12 13 14 12 13 12 11 11 12 12 13 13 13 13 11 9 10 18 18 19 19 17 16 15 15 10 10 11 13 13 8 8 8 8 10 11 9 10 10 11 10 10 11 11 12 13 16 18
10 13 10 12 12 11 12 13 13 13 11 12 11 11 12 14 14 14 14 13 13 13 18 23 22 19 17 15 15 15 12 10 14 16 17 15 6 7 7 6 6 6 8 10 9 8 8 9 10 11 13 15 17 19
14 13 13 12 13 14 13 13 12 12 12 12 11 13 14 15 15 15 13 13 15 21 21 21 21 20 18 17 16 14 11 10 12 15 13 8 5 4 5 4 5 7 7 7 6 6 7 8 9 11 13 15 18 20
10 13 14 14 15 14 14 14 14 13 12 11 12 14 15 16 16 15 16 16 20 20 22 22 22 19 14 15 13 12 11 10 14 15 13 10 8 7 6 4 3 5 4 3 4 6 7 8 9 11 13 16 18 20
12 14 15 15 15 14 14 14 14 13 13 12 13 16 16 17 17 17 18 20 20 20 20 21 17 15 15 14 15 13 13 12 13 14 13 10 11 9 6 5 4 4 4 5 6 7 8 9 10 12 14 17 19 21
15 16 16 16 16 14 14 14 14 14 15 15 15 17 16 16 19 20 21 21 20 20 20 20 19 18 17 16 16 14 14 10 11 14 13 12 9 8 7 7 6 6 6 6 7 7 8 9 11 13 15 17 20 22
18 17 16 16 15 15 14 13 14 13 13 13 15 16 18 19 20 20 18 18 18 19 19 19 17 17 16 16 15 14 10 9 10 14 13 10 6 4 4 4 5 6 6 8 8 8 9 10 11 13 16 18 20 22
19 18 17 16 15 14 14 14 12 13 15 17 19 18 18 19 19 18 17 17 17 16 16 16 15 16 16 14 13 13 10 10 11 13 10 9 8 7 6 6 6 8 7 8 8 8 9 10 12 14 16 18 20 22
20 17 17 15 15 15 14 14 16 19 19 18 15 18 17 17 16 15 16 15 16 15 15 14 14 14 13 11 10 9 10 10 10 9 8 10 11 11 10 11 10 8 9 10 10 11 11 11 12 14 16 19 21 22
22 19 18 20 17 18 21 20 20 19 16 12 15 13 16 16 17 17 17 16 16 15 14 13 13 12 11 11 11 10 8 8 7 7 8 9 10 10 10 9 9 10 11 12 13 13 12 13 14 15 17 18 20 22
27 20 22 22 22 24 21 19 19 18 17 16 16 17 18 20 19 18 19 18 18 17 16 15 12 12 12 10 10 9 10 9 8 7 7 8 8 6 6 6 8 9 10 11 12 13 14 15 16 17 18 20 22 24
16 16 22 20 21 21 21 20 20 20 20 21 20 21 22 23 24 21 21 21 20 19 18 18 16 16 13 12 11 10 10 11 10 10 10 8 6 5 5 6 7 8 9 10 11 12 13 14 16 18 20 22 23 24
13 14 18 22 23 21 20 21 22 24 25 26 26 24 25 26 29 26 23 20 20 23 22 20 20 19 15 15 13 13 14 8 8 9 8 7 7 6 7 7 8 8 9 10 11 12 13 15 17 19 20 21 22 23
15 16 17 21 23 24 23 23 25 26 27 27 27 26 26 26 29 26 23 21 22 22 21 20 19 17 14 13 12 12 10 9 8 8 8 7 6 6 7 7 8 9 9 10 11 12 14 16 18 19 20 21 22 23
Wind_Direction
232 228 221 204 157 143 131 147 190 214 223 227 229 235 237 239 239 235 238 240 242 255 241 249 253 255 256 260 259 255 270 275 291 317 334 344 347 351 357 2 358 3 2 359 0 354 352 295 255 249 243 248 249 244
232 217 211 164 133 128 137 148 170 210 216 221 225 234 235 231 229 226 231 238 231 252 232 250 270 258 249 259 276 263 283 300 321 336 342 358 356 0 7 360 20 10 24 23 15 24 325 289 279 255 288 261 258 317
221 219 180 143 134 140 145 152 178 207 212 216 229 221 227 237 231 230 225 227 225 219 249 252 259 265 283 283 285 297 300 338 344 349 5 3 3 19 9 14 22 36 337 23 38 20 293 315 330 312 329 346 325 235
222 161 143 139 123 137 135 158 179 196 202 216 213 224 236 238 225 224 222 228 232 239 247 246 250 272 277 330 339 342 25 360 8 2 4 7 10 20 17 27 30 18 309 325 4 9 287 332 332 274 357 348 360 3
208 193 156 139 130 111 142 160 181 177 205 205 209 213 210 172 175 180 220 241 238 250 242 235 256 281 317 356 6 4 4 356 352 359 0 3 15 22 21 25 28 324 289 278 327 252 282 293 325 352 8 346 339 358
194 190 158 153 119 113 122 152 184 200 201 204 211 216 218 229 233 232 238 259 265 247 240 247 261 277 302 344 355 349 347 349 352 355 359 10 17 9 6 9 358 305 293 286 274 288 33 15 348 351 2 1 327 352
171 162 148 146 124 108 128 148 165 196 193 203 218 223 233 259 263 249 245 233 249 253 259 278 289 281 298 325 331 338 345 349 352 356 354 357 357 3 351 349 345 292 317 331 355 7 325 255 259 251 308 318 359 346
157 148 150 128 116 116 131 135 163 193 193 159 114 124 158 277 270 263 269 269 268 273 279 302 304 306 302 330 339 339 348 351 350 350 348 342 345 333 325 300 302 273 292 314 323 290 301 54 17 319 324 334 345 352
160 155 150 119 116 134 144 131 177 189 190 196 213 225 237 242 242 239 250 263 299 284 298 305 343 338 318 340 350 354 354 348 352 343 336 330 315 306 286 288 279 261 268 301 326 349 9 19 341 340 321 316 337 352
171 162 155 111 116 136 124 135 162 183 208 217 222 231 233 236 240 251 253 260 272 280 295 320 320 347 355 356 1 1 2 360 355 357 1 331 296 282 274 274 265 252 260 282 305 313 333 328 358 311 309 326 354 11
165 160 140 114 122 124 130 141 175 201 222 223 230 235 226 240 249 266 268 277 281 299 300 315 337 17 9 13 9 14 12 14 5 16 13 342 282 250 253 252 249 252 260 264 278 302 300 313 333 333 317 349 11 24
144 147 134 129 126 128 148 184 206 222 225 224 222 225 235 248 260 270 272 282 293 310 317 342 11 12 19 19 18 28 23 33 29 87 201 230 207 210 216 221 239 259 257 271 290 312 309 304 312 322 331 349 8 18
137 126 131 131 126 137 181 204 209 197 208 223 228 237 246 259 268 273 281 293 316 325 349 13 14 10 18 24 29 32 31 36 198 185 185 187 187 199 214 231 248 275 302 345 356 334 320 319 312 319 342 0 26 18
129 126 134 129 138 163 170 159 205 218 228 240 245 246 259 267 271 279 283 300 305 340 38 25 17 20 34 46 35 32 233 212 204 192 187 197 183 177 194 229 254 278 355 48 76 351 306 345 333 356 10 33 40 30
136 139 137 135 152 155 180 213 223 233 243 250 255 261 266 263 259 266 281 318 334 16 24 28 29 40 46 44 273 232 221 212 199 202 215 205 139 120 169 217 215 100 128 162 157 116 68 50 58 59 40 36 36 33
136 146 182 146 150 188 215 230 234 247 255 259 268 267 256 269 285 291 316 335 333 5 20 23 43 50 50 315 230 222 217 212 225 241 253 13 100 125 226 199 222 239 91 80 76 77 78 79 73 60 47 38 38 40
192 204 165 149 176 213 235 237 241 260 264 263 264 260 264 276 274 285 305 320 323 358 15 38 55 54 277 235 226 226 224 253 264 275 287 228 90 331 290 355 42 61 78 83 86 90 88 77 69 57 47 46 38 32
201 161 150 175 209 230 242 254 255 262 267 261 259 268 283 281 285 299 312 321 339 360 33 41 312 15 239 233 230 234 254 275 277 280 259 248 260 299 36 78 82 88 94 98 100 93 86 80 65 48 41 37 29 23
176 164 172 209 234 249 257 255 265 261 264 265 268 275 287 290 296 305 314 326 352 10 360 286 273 247 233 229 235 245 241 236 245 254 255 258 40 59 38 55 78 95 102 101 99 92 83 67 51 43 38 33 21 15
143 162 207 231 250 264 273 270 262 269 262 266 273 282 295 300 300 305 315 329 336 340 302 255 247 242 237 250 254 260 263 3 343 308 281 275 316 45 59 66 84 97 91 93 88 87 67 45 39 36 30 22 15 12
193 211 226 245 261 277 275 270 264 272 270 272 281 293 302 309 309 313 313 318 317 297 264 244 244 252 258 275 288 314 348 46 300 281 273 281 7 53 47 28 76 85 100 103 96 83 67 48 33 28 24 17 13 10
205 218 233 254 263 269 274 268 265 274 275 275 288 294 303 311 318 315 322 315 312 268 255 251 253 258 269 285 305 331 5 22 337 309 317 354 12 13 335 53 82 106 109 107 92 73 50 31 31 25 18 12 9 6
225 238 250 257 262 268 270 263 259 271 277 283 293 301 307 316 319 322 310 302 280 267 256 252 255 267 285 297 319 333 349 8 319 309 318 326 326 317 325 351 40 90 83 61 39 27 22 21 20 15 10 7 5 3
243 251 257 261 264 269 268 271 266 271 279 293 304 305 310 314 324 317 298 280 275 265 257 254 264 279 287 297 300 315 329 333 327 320 317 319 295 305 318 335 2 19 27 31 21 12 11 9 11 7 3 1 1 360
249 251 261 259 260 268 268 269 268 270 275 283 294 303 316 320 306 287 276 278 270 259 258 260 264 273 285 290 292 312 322 343 333 313 309 305 309 313 320 331 340 353 8 20 9 5 5 7 4 2 0 360 358 358
244 252 255 255 260 265 271 277 272 272 283 294 301 302 298 289 277 273 285 274 261 256 259 263 270 279 289 292 297 310 343 355 348 316 308 308 311 329 341 350 350 342 352 355 5 7 7 6 4 3 0 1 1 360
245 250 258 262 268 272 273 271 281 282 282 277 276 277 285 276 276 284 283 271 265 266 272 276 286 289 293 303 316 326 350 358 343 326 324 318 319 332 350 349 345 346 3 6 11 13 11 8 6 4 3 4 4 2
245 255 256 269 264 264 267 267 261 255 257 267 283 275 288 289 286 291 287 286 281 286 291 299 304 307 314 323 337 0 4 15 18 9 351 333 327 330 338 349 2 18 13 13 12 14 14 14 12 12 10 6 6 8
240 251 255 247 255 251 245 249 258 266 283 299 296 329 308 300 294 292 289 291 292 298 304 310 314 321 327 329 331 341 29 48 33 349 322 316 318 325 341 0 9 13 14 12 12 18 24 24 22 20 18 16 14 12
232 256 252 252 253 246 258 270 282 294 292 301 313 318 318 300 300 299 295 294 292 294 299 306 315 314 315 321 321 334 341 354 13 18 350 325 326 355 6 9 12 13 17 20 22 25 27 26 26 21 18 12 9 9
284 279 268 275 278 281 283 290 294 298 299 299 305 306 302 299 295 303 298 294 292 295 297 296 300 302 310 309 309 316 322 332 344 354 1 22 48 63 54 38 29 24 23 27 28 27 27 21 17 12 10 10 10 10
296 290 283 280 280 285 292 293 294 290 292 291 294 300 299 295 288 290 300 299 294 285 287 291 291 293 303 305 309 313 322 331 344 355 9 23 39 52 56 51 46 44 40 33 27 25 23 16 13 12 12 12 12 13
300 300 296 290 286 286 287 288 289 289 289 291 293 295 294 292 288 286 294 299 295 290 289 291 294 302 308 310 313 316 326 335 343 352 8 26 45 50 47 46 48 48 44 35 28 25 21 16 14 14 14 15 15 17